Barrow, AK

11:43 AM AKST on January 19, 2018 (GMT -0900)
Wiley Post-Will Rogers Memorial

Weather History for PABR - December, 2012

Change the Weather History Date:

Wednesday, December 12, 2012

  Actual Average Record
Temperature  
Mean Temperature -20 °F -7 °F  
Max Temperature -13 °F -1 °F 30 °F (1933)
Min Temperature -27 °F -13 °F -38 °F (1935)
Degree Days  
Heating Degree Days 85 72  
Month to date heating degree days 844 849  
Since 1 July heating degree days 5915 6801  
Cooling Degree Days 0 0  
Month to date cooling degree days 0 0  
Year to date cooling degree days 0 0  
Moisture  
Dew Point -24 °F    
Average Humidity 0    
Maximum Humidity 0    
Minimum Humidity 0    
Precipitation  
Precipitation T in 0.01 in 0.15 in (1988)
Month to date precipitation 0.07 0.06  
Year to date precipitation 6.27 4.45  
Snow  
Snow T in 0.10 in 2.10 in (1933)
Month to date snowfall 3.8 1.5  
Since 1 July snowfall 37.4 21.8  
Snow Depth 7.00 in    
Sea Level Pressure  
Sea Level Pressure 29.55 in    
Wind  
Wind Speed 5 mph (WNW)    
Max Wind Speed 12 mph    
Max Gust Speed 14 mph    
Visibility 9 miles    
Events Snow    
T = Trace of Precipitation, MM = Missing Value Source: NWS Daily Summary

Daily Weather History Graph

Daily Weather History Graph

Search for Another Location

Airport or City:

Trip Planner

Search our weather history database for the weather conditions in past years. The results will help you decide how hot, cold, wet, or windy it might be!

Date:

Astronomy

Dec. 31, 1969 Rise Set
Actual Time Sun does not rise Sun does not rise
Civil Twilight 11:42 AM AKST 3:00 PM AKST
Nautical Twilight 9:36 AM AKST 5:05 PM AKST
Astronomical Twilight 8:10 AM AKST 6:31 PM AKST
Moon No Moon Rise No Moon Set
Length of Visible Light 3h 18m
Length of Day
0h 00m
Waning Crescent, 0% of the Moon is Illuminated
Dec 12
Waning Crescent
Dec 12
New
Dec 19
First Quarter
Dec 28
Full
Jan 4
Last Quarter

Hourly Weather History & Observations

Time (AKST) Temp. Windchill Dew Point Humidity Pressure Visibility Wind Dir Wind Speed Gust Speed Precip Events Conditions
12:53 AM -14.1 °F -32.6 °F -18.9 °F 79% 29.72 in 10.0 mi NNW 9.2 mph - N/A   Scattered Clouds
1:53 AM -16.1 °F -35.0 °F -20.0 °F 82% 29.70 in 10.0 mi NNW 9.2 mph - N/A   Scattered Clouds
2:53 AM -16.1 °F -33.7 °F -20.9 °F 79% 29.68 in 10.0 mi NNW 8.1 mph - N/A   Scattered Clouds
3:53 AM -17.0 °F -31.7 °F -20.9 °F 82% 29.67 in 10.0 mi NNW 5.8 mph - N/A   Scattered Clouds
4:53 AM -17.0 °F -34.8 °F -22.0 °F 78% 29.65 in 10.0 mi NNW 8.1 mph - N/A   Clear
5:53 AM -18.0 °F -30.9 °F -22.0 °F 82% 29.63 in 10.0 mi NNW 4.6 mph - N/A   Clear
6:53 AM -18.0 °F -30.9 °F -22.0 °F 82% 29.62 in 10.0 mi NW 4.6 mph - N/A   Clear
7:53 AM -18.0 °F -30.9 °F -22.0 °F 82% 29.60 in 10.0 mi NNW 4.6 mph - N/A   Clear
8:53 AM -17.0 °F -29.7 °F -20.9 °F 82% 29.58 in 10.0 mi NNW 4.6 mph - N/A   Clear
9:53 AM -17.0 °F -29.7 °F -20.9 °F 82% 29.57 in 10.0 mi NNW 4.6 mph - N/A   Clear
10:53 AM -20.0 °F - -23.1 °F 86% 29.55 in 10.0 mi Calm Calm - N/A   Clear
11:53 AM -17.0 °F -33.4 °F -20.9 °F 82% 29.54 in 9.0 mi NNW 6.9 mph - N/A   Clear
12:53 PM -18.9 °F - -22.0 °F 86% 29.54 in 8.0 mi Calm Calm - N/A   Clear
1:28 PM -22.0 °F - -27.4 °F 76% 29.52 in 2.5 mi Calm Calm - N/A   Haze
1:35 PM -25.6 °F - -29.2 °F 83% 29.52 in 10.0 mi Calm Calm - N/A   Clear
1:53 PM -27.0 °F -38.7 °F -29.9 °F 86% 29.53 in 10.0 mi South 3.5 mph - N/A   Clear
2:53 PM -18.9 °F - -25.1 °F 74% 29.52 in 10.0 mi Calm Calm - N/A   Clear
3:10 PM -20.2 °F - -25.6 °F 76% 29.51 in 4.0 mi Calm Calm - N/A   Haze
3:53 PM -25.1 °F - -29.9 °F 78% 29.51 in 7.0 mi Calm Calm - N/A   Clear
4:53 PM -23.1 °F - -27.0 °F 82% 29.50 in 10.0 mi Calm Calm - N/A   Clear
5:53 PM -17.0 °F - -23.1 °F 74% 29.50 in 10.0 mi Calm Calm - N/A   Scattered Clouds
6:53 PM -22.0 °F -35.6 °F -27.0 °F 77% 29.49 in 7.0 mi South 4.6 mph - N/A   Scattered Clouds
7:18 PM -22.0 °F -33.0 °F -27.4 °F 76% 29.48 in 7.0 mi SW 3.5 mph - N/A   Mostly Cloudy
7:53 PM -20.0 °F -37.1 °F -25.1 °F 78% 29.49 in 7.0 mi SW 6.9 mph - N/A   Mostly Cloudy
8:53 PM -17.0 °F -34.8 °F -22.0 °F 78% 29.48 in 9.0 mi SW 8.1 mph - N/A   Overcast
9:27 PM -18.4 °F -31.4 °F -23.8 °F 76% 29.47 in 8.0 mi SW 4.6 mph - 0.00 in Snow Light Snow
9:53 PM -24.0 °F -40.0 °F -29.0 °F 77% 29.47 in 8.0 mi WSW 5.8 mph - 0.00 in   Clear
10:45 PM -22.0 °F -37.7 °F -25.6 °F 83% 29.47 in 10.0 mi WSW 5.8 mph - N/A   Partly Cloudy
10:53 PM -20.0 °F -35.3 °F -25.1 °F 78% 29.48 in 7.0 mi WSW 5.8 mph - N/A   Scattered Clouds
11:53 PM -14.1 °F -32.6 °F -18.9 °F 79% 29.48 in 10.0 mi WNW 9.2 mph - N/A   Clear